Time,TemperatureF,DewpointF,PressureIn,WindDirection,WindDirectionDegrees,WindSpeedMPH,WindSpeedGustMPH,Humidity,HourlyPrecipIn,Conditions,Clouds,dailyrainin,SoftwareType,DateUTC
2013-05-26 00:02:00,58.0,56.0,30.22,North,0,7.0,12.0,92,-99.99,,,-99.99,,2013-05-26 05:02:00,
2013-05-26 00:12:00,58.0,55.0,30.21,ESE,112,7.0,11.0,92,-99.99,,,-99.99,,2013-05-26 05:12:00,
2013-05-26 00:22:00,58.0,55.0,30.21,ESE,112,9.0,13.0,90,-99.99,,,-99.99,,2013-05-26 05:22:00,
2013-05-26 00:32:00,57.0,54.0,30.21,ESE,112,9.0,14.0,89,-99.99,,,-99.99,,2013-05-26 05:32:00,
2013-05-26 00:42:00,57.0,54.0,30.21,ESE,112,7.0,13.0,90,-99.99,,,-99.99,,2013-05-26 05:42:00,
2013-05-26 00:52:00,57.0,54.0,30.21,ESE,112,8.0,13.0,90,-99.99,,,-99.99,,2013-05-26 05:52:00,
2013-05-26 01:01:00,57.0,54.0,30.21,ESE,112,7.0,12.0,89,-99.99,,,-99.99,,2013-05-26 06:01:00,
2013-05-26 01:12:00,56.0,53.0,30.21,SE,135,5.0,8.0,89,-99.99,,,-99.99,,2013-05-26 06:12:00,
2013-05-26 01:21:00,56.0,53.0,30.21,SE,135,6.0,11.0,89,-99.99,,,-99.99,,2013-05-26 06:21:00,
2013-05-26 01:32:00,56.0,53.0,30.21,ESE,112,5.0,11.0,89,-99.99,,,-99.99,,2013-05-26 06:32:00,
2013-05-26 01:42:00,56.0,53.0,30.21,ESE,112,4.0,7.0,89,-99.99,,,-99.99,,2013-05-26 06:42:00,
2013-05-26 01:52:00,56.0,53.0,30.20,ESE,112,7.0,12.0,88,-99.99,,,-99.99,,2013-05-26 06:52:00,
2013-05-26 02:01:00,56.0,53.0,30.20,ESE,112,6.0,9.0,89,-99.99,,,-99.99,,2013-05-26 07:01:00,
2013-05-26 02:11:00,56.0,52.0,30.20,ESE,112,6.0,10.0,89,-99.99,,,-99.99,,2013-05-26 07:11:00,
2013-05-26 02:21:00,56.0,52.0,30.20,ESE,112,6.0,10.0,89,-99.99,,,-99.99,,2013-05-26 07:21:00,
2013-05-26 02:31:00,56.0,52.0,30.20,SE,135,6.0,9.0,89,-99.99,,,-99.99,,2013-05-26 07:31:00,
2013-05-26 02:42:00,56.0,52.0,30.20,ESE,112,6.0,11.0,89,-99.99,,,-99.99,,2013-05-26 07:42:00,
2013-05-26 02:52:00,55.0,52.0,30.19,ESE,112,4.0,7.0,90,-99.99,,,-99.99,,2013-05-26 07:52:00,
2013-05-26 03:01:00,55.0,52.0,30.19,ESE,112,5.0,10.0,90,-99.99,,,-99.99,,2013-05-26 08:01:00,
2013-05-26 03:11:00,55.0,52.0,30.19,SE,135,5.0,11.0,90,-99.99,,,-99.99,,2013-05-26 08:11:00,
2013-05-26 03:21:00,55.0,52.0,30.19,ESE,112,5.0,9.0,90,-99.99,,,-99.99,,2013-05-26 08:21:00,
2013-05-26 03:32:00,55.0,52.0,30.18,ESE,112,5.0,8.0,91,-99.99,,,-99.99,,2013-05-26 08:32:00,
2013-05-26 03:42:00,55.0,52.0,30.18,ESE,112,5.0,8.0,91,-99.99,,,-99.99,,2013-05-26 08:42:00,
2013-05-26 03:52:00,54.0,52.0,30.18,ESE,112,6.0,9.0,91,-99.99,,,-99.99,,2013-05-26 08:52:00,
2013-05-26 04:01:00,54.0,52.0,30.18,ESE,112,5.0,8.0,92,-99.99,,,-99.99,,2013-05-26 09:01:00,
2013-05-26 04:11:00,54.0,52.0,30.18,ESE,112,5.0,8.0,92,-99.99,,,-99.99,,2013-05-26 09:11:00,
2013-05-26 04:21:00,54.0,52.0,30.18,ESE,112,4.0,7.0,91,-99.99,,,-99.99,,2013-05-26 09:21:00,
2013-05-26 04:33:00,54.0,52.0,30.18,ESE,112,6.0,10.0,91,-99.99,,,-99.99,,2013-05-26 09:33:00,
2013-05-26 04:42:00,54.0,51.0,30.18,ESE,112,5.0,7.0,91,-99.99,,,-99.99,,2013-05-26 09:42:00,
2013-05-26 04:52:00,54.0,51.0,30.18,ESE,112,5.0,8.0,90,-99.99,,,-99.99,,2013-05-26 09:52:00,
2013-05-26 05:02:00,54.0,51.0,30.18,SE,135,7.0,9.0,90,-99.99,,,-99.99,,2013-05-26 10:02:00,
2013-05-26 05:12:00,54.0,51.0,30.18,SE,135,5.0,8.0,90,-99.99,,,-99.99,,2013-05-26 10:12:00,
2013-05-26 05:23:00,54.0,51.0,30.18,ESE,112,5.0,8.0,91,-99.99,,,-99.99,,2013-05-26 10:23:00,
2013-05-26 05:32:00,54.0,51.0,30.18,ESE,112,8.0,12.0,90,-99.99,,,-99.99,,2013-05-26 10:32:00,
2013-05-26 05:42:00,54.0,51.0,30.18,SE,135,6.0,11.0,90,-99.99,,,-99.99,,2013-05-26 10:42:00,
2013-05-26 05:52:00,54.0,52.0,30.18,SE,135,4.0,7.0,90,-99.99,,,-99.99,,2013-05-26 10:52:00,
2013-05-26 06:03:00,54.0,52.0,30.18,SE,135,5.0,8.0,90,-99.99,,,-99.99,,2013-05-26 11:03:00,
2013-05-26 06:11:00,54.0,52.0,30.18,SE,135,6.0,9.0,90,-99.99,,,-99.99,,2013-05-26 11:11:00,
2013-05-26 06:22:00,55.0,52.0,30.18,SE,135,6.0,9.0,90,-99.99,,,-99.99,,2013-05-26 11:22:00,
2013-05-26 06:32:00,55.0,52.0,30.18,SE,135,4.0,7.0,89,-99.99,,,-99.99,,2013-05-26 11:32:00,
2013-05-26 06:42:00,56.0,52.0,30.19,SSW,202,4.0,6.0,89,-99.99,,,-99.99,,2013-05-26 11:42:00,
2013-05-26 06:52:00,56.0,53.0,30.19,SE,135,6.0,10.0,90,-99.99,,,-99.99,,2013-05-26 11:52:00,
2013-05-26 07:01:00,56.0,53.0,30.19,SE,135,5.0,7.0,92,-99.99,,,-99.99,,2013-05-26 12:01:00,
2013-05-26 07:11:00,56.0,53.0,30.19,ESE,112,6.0,9.0,92,-99.99,,,-99.99,,2013-05-26 12:11:00,
2013-05-26 07:21:00,56.0,54.0,30.19,ESE,112,5.0,8.0,92,-99.99,,,-99.99,,2013-05-26 12:21:00,
2013-05-26 07:32:00,56.0,53.0,30.18,ESE,112,5.0,8.0,92,-99.99,,,-99.99,,2013-05-26 12:32:00,
2013-05-26 07:42:00,55.0,53.0,30.18,SE,135,5.0,9.0,93,-99.99,,,-99.99,,2013-05-26 12:42:00,
2013-05-26 07:52:00,56.0,53.0,30.18,SE,135,6.0,9.0,92,-99.99,,,-99.99,,2013-05-26 12:52:00,
2013-05-26 08:02:00,56.0,53.0,30.18,ESE,112,6.0,10.0,91,-99.99,,,-99.99,,2013-05-26 13:02:00,
2013-05-26 08:11:00,56.0,54.0,30.18,SE,135,6.0,9.0,91,-99.99,,,-99.99,,2013-05-26 13:11:00,
2013-05-26 08:21:00,57.0,54.0,30.18,ESE,112,5.0,8.0,91,-99.99,,,-99.99,,2013-05-26 13:21:00,
2013-05-26 08:32:00,58.0,55.0,30.18,ESE,112,4.0,7.0,90,-99.99,,,-99.99,,2013-05-26 13:32:00,
2013-05-26 08:42:00,58.0,55.0,30.18,ESE,112,6.0,8.0,88,-99.99,,,-99.99,,2013-05-26 13:42:00,
2013-05-26 08:52:00,60.0,56.0,30.18,SE,135,5.0,8.0,87,-99.99,,,-99.99,,2013-05-26 13:52:00,
2013-05-26 09:02:00,60.0,56.0,30.18,ESE,112,6.0,11.0,85,-99.99,,,-99.99,,2013-05-26 14:02:00,
2013-05-26 09:11:00,61.0,56.0,30.19,ESE,112,7.0,12.0,84,-99.99,,,-99.99,,2013-05-26 14:11:00,
2013-05-26 09:21:00,62.0,57.0,30.19,SE,135,6.0,9.0,84,-99.99,,,-99.99,,2013-05-26 14:21:00,
2013-05-26 09:32:00,63.0,58.0,30.18,ESE,112,6.0,8.0,83,-99.99,,,-99.99,,2013-05-26 14:32:00,
2013-05-26 09:41:00,63.0,58.0,30.19,ESE,112,6.0,9.0,82,-99.99,,,-99.99,,2013-05-26 14:41:00,
2013-05-26 09:51:00,65.0,59.0,30.18,SE,135,5.0,9.0,81,-99.99,,,-99.99,,2013-05-26 14:51:00,
2013-05-26 10:01:00,66.0,59.0,30.18,ESE,112,6.0,9.0,79,-99.99,,,-99.99,,2013-05-26 15:01:00,
2013-05-26 10:12:00,66.0,60.0,30.18,SE,135,6.0,9.0,79,-99.99,,,-99.99,,2013-05-26 15:12:00,
2013-05-26 10:22:00,67.0,60.0,30.18,ESE,112,6.0,9.0,79,-99.99,,,-99.99,,2013-05-26 15:22:00,
2013-05-26 10:33:00,67.0,60.0,30.18,SE,135,6.0,11.0,78,-99.99,,,-99.99,,2013-05-26 15:33:00,
2013-05-26 10:43:00,68.0,61.0,30.18,SE,135,5.0,8.0,79,-99.99,,,-99.99,,2013-05-26 15:43:00,
2013-05-26 10:53:00,69.0,61.0,30.18,SE,135,6.0,9.0,77,-99.99,,,-99.99,,2013-05-26 15:53:00,
2013-05-26 11:03:00,70.0,62.0,30.18,SE,135,6.0,9.0,77,-99.99,,,-99.99,,2013-05-26 16:03:00,
2013-05-26 11:12:00,70.0,62.0,30.17,SE,135,7.0,13.0,77,-99.99,,,-99.99,,2013-05-26 16:12:00,
2013-05-26 11:23:00,71.0,63.0,30.17,SE,135,7.0,11.0,76,-99.99,,,-99.99,,2013-05-26 16:23:00,
2013-05-26 11:33:00,71.0,63.0,30.17,SE,135,7.0,11.0,76,-99.99,,,-99.99,,2013-05-26 16:33:00,
2013-05-26 11:42:00,72.0,64.0,30.17,ESE,112,7.0,11.0,77,-99.99,,,-99.99,,2013-05-26 16:42:00,
2013-05-26 11:52:00,72.0,65.0,30.17,SE,135,7.0,12.0,76,-99.99,,,-99.99,,2013-05-26 16:52:00,
2013-05-26 12:02:00,73.0,65.0,30.17,ESE,112,7.0,11.0,75,-99.99,,,-99.99,,2013-05-26 17:02:00,
2013-05-26 12:11:00,74.0,66.0,30.17,SE,135,6.0,9.0,76,-99.99,,,-99.99,,2013-05-26 17:11:00,
2013-05-26 12:22:00,74.0,65.0,30.17,ESE,112,6.0,12.0,75,-99.99,,,-99.99,,2013-05-26 17:22:00,
2013-05-26 12:32:00,74.0,65.0,30.17,SE,135,5.0,9.0,75,-99.99,,,-99.99,,2013-05-26 17:32:00,
2013-05-26 12:42:00,74.0,66.0,30.16,ESE,112,6.0,9.0,77,-99.99,,,-99.99,,2013-05-26 17:42:00,
2013-05-26 12:52:00,74.0,66.0,30.16,North,0,8.0,12.0,75,-99.99,,,-99.99,,2013-05-26 17:52:00,
2013-05-26 13:01:00,74.0,66.0,30.15,ESE,112,7.0,11.0,76,-99.99,,,-99.99,,2013-05-26 18:01:00,
2013-05-26 13:12:00,75.0,66.0,30.15,North,0,8.0,12.0,76,-99.99,,,-99.99,,2013-05-26 18:12:00,
2013-05-26 13:21:00,74.0,67.0,30.15,ESE,112,7.0,12.0,76,-99.99,,,-99.99,,2013-05-26 18:21:00,
2013-05-26 13:31:00,74.0,66.0,30.15,North,0,8.0,13.0,76,-99.99,,,-99.99,,2013-05-26 18:31:00,
2013-05-26 13:42:00,76.0,67.0,30.15,North,0,8.0,13.0,76,-99.99,,,-99.99,,2013-05-26 18:42:00,
2013-05-26 13:52:00,76.0,68.0,30.14,North,0,9.0,12.0,75,-99.99,,,-99.99,,2013-05-26 18:52:00,
2013-05-26 14:01:00,76.0,67.0,30.14,ESE,112,9.0,13.0,75,-99.99,,,-99.99,,2013-05-26 19:01:00,
2013-05-26 14:11:00,75.0,67.0,30.13,ESE,112,9.0,14.0,76,-99.99,,,-99.99,,2013-05-26 19:11:00,
2013-05-26 14:22:00,75.0,67.0,30.13,ESE,112,10.0,16.0,75,-99.99,,,-99.99,,2013-05-26 19:22:00,
2013-05-26 14:32:00,77.0,68.0,30.13,North,0,10.0,14.0,74,-99.99,,,-99.99,,2013-05-26 19:32:00,
2013-05-26 14:42:00,77.0,68.0,30.13,ESE,112,10.0,16.0,74,-99.99,,,-99.99,,2013-05-26 19:42:00,
2013-05-26 14:52:00,77.0,68.0,30.12,ESE,112,9.0,13.0,74,-99.99,,,-99.99,,2013-05-26 19:52:00,
2013-05-26 15:02:00,77.0,68.0,30.12,ESE,112,10.0,15.0,73,-99.99,,,-99.99,,2013-05-26 20:02:00,
2013-05-26 15:11:00,78.0,68.0,30.11,ESE,112,10.0,14.0,73,-99.99,,,-99.99,,2013-05-26 20:11:00,
2013-05-26 15:21:00,77.0,68.0,30.10,North,0,10.0,16.0,73,-99.99,,,-99.99,,2013-05-26 20:21:00,
2013-05-26 15:32:00,77.0,68.0,30.10,ESE,112,10.0,16.0,73,-99.99,,,-99.99,,2013-05-26 20:32:00,
2013-05-26 15:41:00,77.0,68.0,30.09,ESE,112,11.0,17.0,73,-99.99,,,-99.99,,2013-05-26 20:41:00,
2013-05-26 15:52:00,78.0,68.0,30.09,ESE,112,10.0,13.0,73,-99.99,,,-99.99,,2013-05-26 20:52:00,
2013-05-26 16:01:00,78.0,68.0,30.08,North,0,9.0,14.0,73,-99.99,,,-99.99,,2013-05-26 21:01:00,
2013-05-26 16:11:00,77.0,68.0,30.08,ESE,112,10.0,15.0,74,-99.99,,,-99.99,,2013-05-26 21:11:00,
2013-05-26 16:22:00,77.0,68.0,30.07,ESE,112,10.0,16.0,73,-99.99,,,-99.99,,2013-05-26 21:22:00,
2013-05-26 16:33:00,78.0,69.0,30.07,ESE,112,10.0,14.0,72,-99.99,,,-99.99,,2013-05-26 21:33:00,
2013-05-26 16:43:00,78.0,69.0,30.07,ESE,112,9.0,14.0,74,-99.99,,,-99.99,,2013-05-26 21:43:00,
2013-05-26 16:53:00,77.0,69.0,30.06,ESE,112,8.0,15.0,75,-99.99,,,-99.99,,2013-05-26 21:53:00,
2013-05-26 17:02:00,77.0,69.0,30.06,ESE,112,8.0,13.0,75,-99.99,,,-99.99,,2013-05-26 22:02:00,
2013-05-26 17:12:00,77.0,69.0,30.06,ESE,112,6.0,9.0,76,-99.99,,,-99.99,,2013-05-26 22:12:00,
2013-05-26 17:23:00,77.0,68.0,30.06,SE,135,7.0,12.0,73,-99.99,,,-99.99,,2013-05-26 22:23:00,
2013-05-26 17:33:00,77.0,67.0,30.06,SE,135,7.0,11.0,72,-99.99,,,-99.99,,2013-05-26 22:33:00,
2013-05-26 17:42:00,76.0,68.0,30.05,SE,135,4.0,9.0,75,-99.99,,,-99.99,,2013-05-26 22:42:00,
2013-05-26 17:53:00,76.0,68.0,30.05,SE,135,7.0,13.0,76,-99.99,,,-99.99,,2013-05-26 22:53:00,
2013-05-26 18:02:00,76.0,68.0,30.04,SE,135,8.0,13.0,76,-99.99,,,-99.99,,2013-05-26 23:02:00,
2013-05-26 18:11:00,75.0,68.0,30.03,SE,135,8.0,12.0,76,-99.99,,,-99.99,,2013-05-26 23:11:00,
2013-05-26 18:22:00,75.0,68.0,30.04,SE,135,5.0,10.0,79,-99.99,,,-99.99,,2013-05-26 23:22:00,
2013-05-26 18:32:00,74.0,68.0,30.04,SSE,157,3.0,6.0,82,-99.99,,,-99.99,,2013-05-26 23:32:00,
2013-05-26 18:43:00,74.0,68.0,30.05,West,270,4.0,6.0,83,-99.99,,,-99.99,,2013-05-26 23:43:00,
2013-05-26 18:51:00,73.0,69.0,30.05,WSW,247,3.0,4.0,87,-99.99,,,-99.99,,2013-05-26 23:51:00,
2013-05-26 19:02:00,73.0,69.0,30.04,SE,135,5.0,7.0,87,-99.99,,,-99.99,,2013-05-27 00:02:00,
2013-05-26 19:11:00,73.0,69.0,30.04,South,180,5.0,8.0,88,-99.99,,,-99.99,,2013-05-27 00:11:00,
2013-05-26 19:21:00,73.0,69.0,30.04,SSE,157,2.0,6.0,87,-99.99,,,-99.99,,2013-05-27 00:21:00,
2013-05-26 19:31:00,72.0,69.0,30.04,ESE,112,4.0,7.0,90,-99.99,,,-99.99,,2013-05-27 00:31:00,
2013-05-26 19:41:00,72.0,69.0,30.05,North,0,0.0,-999.0,89,-99.99,,,-99.99,,2013-05-27 00:41:00,
2013-05-26 19:52:00,71.0,69.0,30.05,NW,315,2.0,4.0,95,-99.99,,,-99.99,,2013-05-27 00:52:00,
2013-05-26 20:01:00,71.0,67.0,30.05,WSW,247,7.0,11.0,87,-99.99,,,-99.99,,2013-05-27 01:01:00,
2013-05-26 20:11:00,70.0,63.0,30.06,SSW,202,7.0,11.0,78,-99.99,,,-99.99,,2013-05-27 01:11:00,
2013-05-26 20:22:00,68.0,63.0,30.05,SSE,157,4.0,8.0,83,-99.99,,,-99.99,,2013-05-27 01:22:00,
2013-05-26 20:31:00,68.0,64.0,30.04,ESE,112,4.0,7.0,88,-99.99,,,-99.99,,2013-05-27 01:31:00,
2013-05-26 20:42:00,67.0,64.0,30.03,North,0,3.0,4.0,89,-99.99,,,-99.99,,2013-05-27 01:42:00,
2013-05-26 20:52:00,67.0,64.0,30.03,NNE,22,3.0,4.0,93,-99.99,,,-99.99,,2013-05-27 01:52:00,
2013-05-26 21:01:00,66.0,65.0,30.03,North,0,3.0,4.0,95,-99.99,,,-99.99,,2013-05-27 02:01:00,
2013-05-26 21:11:00,67.0,65.0,30.04,SE,135,4.0,7.0,93,-99.99,,,-99.99,,2013-05-27 02:11:00,
2013-05-26 21:21:00,67.0,64.0,30.04,SE,135,4.0,7.0,91,-99.99,,,-99.99,,2013-05-27 02:21:00,
2013-05-26 21:32:00,67.0,64.0,30.05,South,180,6.0,10.0,92,-99.99,,,-99.99,,2013-05-27 02:32:00,
2013-05-26 21:42:00,67.0,63.0,30.05,SSW,202,6.0,8.0,88,-99.99,,,-99.99,,2013-05-27 02:42:00,
2013-05-26 21:52:00,67.0,64.0,30.05,SSW,202,2.0,3.0,89,-99.99,,,-99.99,,2013-05-27 02:52:00,
2013-05-26 22:02:00,67.0,64.0,30.05,ESE,112,4.0,5.0,92,-99.99,,,-99.99,,2013-05-27 03:02:00,
2013-05-26 22:11:00,66.0,64.0,30.06,West,270,2.0,3.0,93,-99.99,,,-99.99,,2013-05-27 03:11:00,
2013-05-26 22:21:00,66.0,64.0,30.06,WSW,247,0.0,-999.0,95,-99.99,,,-99.99,,2013-05-27 03:21:00,
2013-05-26 22:33:00,66.0,64.0,30.06,SE,135,2.0,3.0,95,-99.99,,,-99.99,,2013-05-27 03:33:00,
2013-05-26 22:42:00,66.0,65.0,30.06,SSE,157,2.0,4.0,94,-99.99,,,-99.99,,2013-05-27 03:42:00,
2013-05-26 22:53:00,66.0,65.0,30.05,SE,135,3.0,4.0,95,-99.99,,,-99.99,,2013-05-27 03:53:00,
2013-05-26 23:02:00,66.0,64.0,30.05,SSE,157,2.0,4.0,95,-99.99,,,-99.99,,2013-05-27 04:02:00,
2013-05-26 23:12:00,66.0,65.0,30.04,SSE,157,3.0,5.0,95,-99.99,,,-99.99,,2013-05-27 04:12:00,
2013-05-26 23:23:00,66.0,65.0,30.03,SSE,157,3.0,7.0,96,-99.99,,,-99.99,,2013-05-27 04:23:00,
2013-05-26 23:33:00,66.0,65.0,30.04,South,180,4.0,7.0,95,-99.99,,,-99.99,,2013-05-27 04:33:00,
2013-05-26 23:42:00,66.0,65.0,30.04,South,180,4.0,7.0,94,-99.99,,,-99.99,,2013-05-27 04:42:00,
2013-05-26 23:52:00,66.0,64.0,30.03,SSE,157,5.0,9.0,94,-99.99,,,-99.99,,2013-05-27 04:52:00,